Regional Weather Roundup
Issued by NWS Little Rock, AR

Current Version | Previous Version | Text Only | Print | Product List | Glossary On
Versions: 1 2 3 4 5 6 7 8 9 10 11 12 13 14 15 16 17 18 19 20 21 22 23 24 25 26 27 28 29 30 31 32 33 34 35 36 37 38 39 40 41 42 43 44 45 46 47 48 49 50
000
ASUS44 KLZK 260605
RWRLZK

WEATHER ROUNDUP FOR ARKANSAS
NATIONAL WEATHER SERVICE LITTLE ROCK AR
1200 AM CST WED NOV 26 2014

NOTE: "FAIR" INDICATES FEW OR NO CLOUDS BELOW 12,000 FEET WITH NO
SIGNIFICANT WEATHER AND/OR OBSTRUCTIONS TO VISIBILITY.

ARZ001-003-010-029-260700-
NORTHWEST ARKANSAS

CITY           SKY/WX    TMP DP  RH WIND       PRES   REMARKS
FAYETTEVILLE   MOCLDY    29  26  89 CALM      30.09F
6HR MIN TEMP:  29; 6HR MAX TEMP:  36;

FORT SMITH     PTCLDY    36  30  79 NE6       30.12F
6HR MIN TEMP:  35; 6HR MAX TEMP:  44;

HARRISON       PTCLDY    33  23  66 CALM      30.10F
6HR MIN TEMP:  31; 6HR MAX TEMP:  40;

BENTONVILLE    MOCLDY    34  25  69 S5        30.09F WCI  30
6HR MIN TEMP:  34; 6HR MAX TEMP:  39;

ROGERS         MOCLDY    36  24  62 SE7       30.09F
6HR MIN TEMP:  34; 6HR MAX TEMP:  41;

SILOAM SPGS    PTCLDY    34  19  55 E6        30.09F WCI  29
6HR MIN TEMP:  34; 6HR MAX TEMP:  39;

HIGHFILL       MOCLDY    34  25  69 SE3       30.08F
6HR MIN TEMP:  33; 6HR MAX TEMP:  40;

$$

ARZ004-005-016-260700-
NORTH CENTRAL ARKANSAS

CITY           SKY/WX    TMP DP  RH WIND       PRES   REMARKS
BATESVILLE     CLEAR     28  23  80 CALM      30.15F
6HR MIN TEMP:  28; 6HR MAX TEMP:  43;

FLIPPIN        PTCLDY    28  19  69 CALM      30.13F
6HR MIN TEMP:  28; 6HR MAX TEMP:  39;

MTN HOME       CLEAR     35  18  49 SE3       30.11F
6HR MIN TEMP:  31; 6HR MAX TEMP:  39;

$$

ARZ040-041-260700-
WEST CENTRAL ARKANSAS

CITY           SKY/WX    TMP DP  RH WIND       PRES   REMARKS
MENA           MOCLDY    34  32  93 CALM      30.12F
MOUNT IDA      MOCLDY    31  28  89 CALM      30.11F
6HR MIN TEMP:  31; 6HR MAX TEMP:  43;

$$

ARZ009-017-025-026-028-260700-
NORTHEAST ARKANSAS

CITY           SKY/WX    TMP DP  RH WIND       PRES   REMARKS
CORNING        FAIR      30  30 100 CALM      30.17S
JONESBORO      CLEAR     30  28  92 CALM      30.17F
6HR MIN TEMP:  30; 6HR MAX TEMP:  37;

NEWPORT        CLEAR     33  30  89 CALM      30.18F
6HR MIN TEMP:  33; 6HR MAX TEMP:  44;

WALNUT RIDGE   CLEAR     34  27  75 SW3       30.17S
6HR MIN TEMP:  32; 6HR MAX TEMP:  39;

BLYTHEVILLE    CLEAR     39  30  70 E6        30.16F
6HR MIN TEMP:  38; 6HR MAX TEMP:  47;

$$

ARZ022-023-033-042-044-260700-
CENTRAL ARKANSAS

CITY           SKY/WX    TMP DP  RH WIND       PRES   REMARKS
LITTLE ROCK    PTCLDY    35  28  75 CALM      30.16F
6HR MIN TEMP:  34; 6HR MAX TEMP:  47;

N LITTLE ROCK  PTCLDY    39  31  72 SW5       30.16F
6HR MIN TEMP:  38; 6HR MAX TEMP:  44;

JACKSONVILLE   CLEAR     29  25  86 E1        30.15F
6HR MIN TEMP:  29; 6HR MAX TEMP:  39;

SEARCY         CLEAR     27  26  96 CALM      30.18F
6HR MIN TEMP:  27; 6HR MAX TEMP:  39;

HOT SPRINGS    PTCLDY    32  28  85 CALM      30.14F
6HR MIN TEMP:  32; 6HR MAX TEMP:  44;

RUSSELLVILLE   MOCLDY    31  28  89 CALM      30.14F
6HR MIN TEMP:  30; 6HR MAX TEMP:  38;

CLINTON        FAIR      27  25  93 CALM      30.17F
$$

ARZ036-260700-
EAST ARKANSAS

CITY           SKY/WX    TMP DP  RH WIND       PRES   REMARKS
WEST MEMPHIS   CLEAR     31  30  96 CALM      30.16F
6HR MIN TEMP:  27; 6HR MAX TEMP:  35;

$$

ARZ050-053-066-070-073-260700-
SOUTHWEST ARKANSAS

CITY           SKY/WX    TMP DP  RH WIND       PRES   REMARKS
ARKADELPHIA    FAIR      33  33 100 CALM      30.15F
6HR MIN TEMP:  33; 6HR MAX TEMP:  43;

CAMDEN         CLEAR     32  30  93 CALM      30.17F
TEXARKANA      MOCLDY    44  32  62 S7        30.13F
6HR MIN TEMP:  42; 6HR MAX TEMP:  48;

EL DORADO      CLEAR     34  31  88 CALM      30.17F
6HR MIN TEMP:  34; 6HR MAX TEMP:  42;

DE QUEEN       MOCLDY    35  33  92 CALM      30.12F
6HR MIN TEMP:  34; 6HR MAX TEMP:  44;

$$

ARZ056-057-069-260700-
SOUTHEAST ARKANSAS

CITY           SKY/WX    TMP DP  RH WIND       PRES   REMARKS
PINE BLUFF     CLEAR     35  30  82 CALM      30.17F
6HR MIN TEMP:  34; 6HR MAX TEMP:  44;

STUTTGART      CLEAR     36  28  75 S5        30.17F
6HR MIN TEMP:  36; 6HR MAX TEMP:  45;

MONTICELLO     CLEAR     32  29  88 CALM      30.17F
6HR MIN TEMP:  32; 6HR MAX TEMP:  42;


$$





USA.gov is the U.S. government's official web portal to all federal, state and local government web resources and services.